Regional Weather Roundup
Issued by NWS

Current Version | Previous Version | Text Only | Print | Product List | Glossary On
Versions: 1 2 3 4 5 6 7 8 9 10 11 12 13 14 15 16 17 18 19 20 21 22 23 24 25 26 27 28 29 30 31 32 33 34 35 36 37 38 39 40 41 42 43 44 45 46 47 48 49 50
000
ASUS45 KBOU 181110
RWRCO

WEATHER ROUNDUP FOR COLORADO
NATIONAL WEATHER SERVICE DENVER/BOULDER CO
500 AM MDT SUN APR 18 2021

NOTE: "FAIR" INDICATES FEW OR NO CLOUDS BELOW 12000 FEET WITH NO
SIGNIFICANT WEATHER AND/OR OBSTRUCTIONS TO VISIBILITY.

COZ001>005-013-030-031-181200-
...NORTHWEST COLORADO...

CITY           SKY/WX    TMP DP  RH WIND       PRES   REMARKS
CRAIG          FAIR      18  14  84 CALM      30.26S
HAYDEN         FAIR      25  16  68 E7        30.26S WCI  17
MEEKER         FAIR      18  11  74 E5        30.25S WCI  11
RANGELY        FAIR      23  14  69 CALM      30.27R
RABBIT EARS PA FAIR      14   9  79 N3        30.22F
STEAMBOAT SPGS FAIR      21  15  79 CALM      30.24R
WALDEN         FAIR      15   9  78 SE3       30.25R
$$

COZ006>008-011-181200-
...WEST CENTRAL VALLEYS...

CITY           SKY/WX    TMP DP  RH WIND       PRES   REMARKS
GRAND JUNCTION FAIR      34  16  47 N3        30.21R
MONTROSE       FAIR      27  19  72 SE9       30.24R WCI  18
EAGLE          FAIR      22  15  75 CALM      30.28R
RIFLE          FAIR      26  17  68 S3        30.25R
DELTA          FAIR      30  16  56 NE5       30.23R WCI  25
NUCLA          FAIR      28  19  69 E8        30.24R WCI  20
$$

COZ017>023-064>068-181200-
...SOUTHWEST COLORADO...

CITY           SKY/WX    TMP DP  RH WIND       PRES   REMARKS
DURANGO        MOCLDY    28  24  85 NE3       30.20R
CORTEZ         FAIR      28  21  75 CALM      30.20R
PAGOSA SPRINGS FAIR      22  22  99 CALM      30.22R
TELLURIDE      FAIR      23  16  74 SE5       30.22S WCI  17
WOLF CREEK PAS FAIR      10  10 100 N5        30.25R WCI   2
$$

COZ009-010-012-014-032>034-037-058>063-181200-
...CENTRAL COLORADO...

CITY           SKY/WX    TMP DP  RH WIND       PRES   REMARKS
ASPEN          FAIR      20   9  62 SW8       30.22R WCI  10
BUENA VISTA    FAIR      21  11  64 NW6       30.22S WCI  13
COPPER MTN     FAIR      14  -2  48 W8        30.19S WCI   3
BERTHOUD PASS  FAIR       5  -8  56 N20       30.15S WCI -15
DAKOTA HILL    FAIR      10   7  85 NW12G18   30.17R WCI  -4
COTTONWOOD PAS FAIR      21   1  42 W7        30.19S WCI  13
GUNNISON       CLOUDY    24  19  81 NE9       30.24S WCI  14
GRANBY         FAIR      15  10  78 CALM      30.26R
KREMMLING      FAIR      18  14  86 CALM      30.27S
LEADVILLE      FAIR       2  -3  80 NE6       30.19F WCI  -9
MONARCH PASS     N/A     10   7  85 SW8       30.28S WCI  -1
SALIDA         FAIR      21  15  77 SW6       30.30S WCI  13
SUNLIGHT         N/A     12   9  85 NE5       30.25R WCI   4
WILKERSON PASS FAIR      12   9  85 NW13G18   30.19S WCI  -3
$$

COZ069>075-181200-
...SAN LUIS VALLEY/SANGRE DE CRISTO MOUNTAINS...

CITY           SKY/WX    TMP DP  RH WIND       PRES   REMARKS
ALAMOSA        NOT AVBL
DEL NORTE      MOCLDY    21  15  79 W7        30.24R WCI  12
LA VETA PASS   FAIR      14  12  92 W6        30.17S WCI   5
SAGUACHE       FAIR      23  19  86 NW9       30.23S WCI  13
$$

COZ035-036-038>040-181200-
...NORTHERN COLORADO FRONT RANGE...

CITY           SKY/WX    TMP DP  RH WIND       PRES   REMARKS
DENVER INTL AP FAIR      30  21  69 SW13      30.16S WCI  20
AURORA         CLEAR     29  20  71 SW6       30.17F WCI  22
WATKINS        NOT AVBL
ERIE           FAIR      29  22  73 S5        30.17S WCI  24
BOULDER        FAIR      34  12  40 SW10G17   30.16F WCI  26
CENTENNIAL     FAIR      30  17  58 W12       30.17S WCI  20
BROOMFIELD     FAIR      32  19  59 W9        30.17S WCI  24
FORT COLLINS   FAIR      32  20  61 S3        30.16F
LONGMONT       FAIR      30  17  60 W3        30.19S
$$

COZ041-046-047-076>085-087-088-181200-
...PIKES PEAK/PALMER DIVIDE AND SOUTHERN FOOTHILLS...

CITY           SKY/WX    TMP DP  RH WIND       PRES   REMARKS
COLO. SPRINGS  FAIR      30  16  56 NW6       30.19R WCI  24
A. F. ACADEMY  FAIR      21  15  77 N6        30.16S WCI  13
SCHRIEVER AFB  NOT AVBL
CHEYENNE MTN   FAIR      31  10  40 NW7       30.13S WCI  24
ELLICOTT       FAIR      22  16  77 N3        30.19S
FALCON         NOT AVBL
FORT CARSON    FAIR      24  16  70 NW5       30.18S WCI  19
LIMON          FAIR      27  20  75 W9        30.14F WCI  18
MONUMENT HILL  FAIR      23  14  68 W9        30.18F WCI  13
CANON CITY     FAIR      32  25  74 W13       30.20S WCI  22
WALSENBURG     NOT AVBL
TRINIDAD       FAIR      25  19  78 W18       30.21S WCI  11
$$

COZ042>045-048>051-090-091-181200-
...NORTHEAST COLORADO...

CITY           SKY/WX    TMP DP  RH WIND       PRES   REMARKS
GREELEY        FAIR     N/A N/A N/A SW3       30.18R
AKRON          NOT AVBL
BURLINGTON     FAIR      30  24  78 W10       30.13F WCI  21
WRAY           FAIR      30  28  93 W7        30.12S WCI  23
YUMA           FAIR      27  25  93 W9        30.12S WCI  17
STERLING       FAIR      27  27 100 S6        30.12F WCI  20
HOLYOKE        FAIR      34  30  86 W10       30.10F WCI  26
FORT MORGAN    FAIR      28  24  86 W10       30.15S WCI  19
$$

COZ086-089-092>099-181200-
...SOUTHEAST COLORADO...

CITY           SKY/WX    TMP DP  RH WIND       PRES   REMARKS
PUEBLO         FAIR      29  23  78 W12       30.20S WCI  19
LA JUNTA       FAIR      29  24  82 W16       30.17F WCI  17
LAMAR          FAIR      28  23  81 W7        30.15F WCI  21
SPRINGFIELD      N/A     30  23  75 W15       30.16S WCI  19
$$



USA.gov is the U.S. government's official web portal to all federal, state and local government web resources and services.